Location: Gilevgi
(36.8751°N, 30.0581°E)
Time: 10:07:15
(UTC+00:00)

IRS-P3 - Pass Details

Date: 18 March 2026
Orbit: 810 x 816 km, 99.0° (Epoch: 20 April)

Event Time Altitude Azimuth Distance (km) Brightness Sun altitude
Rises 17:17:55 0° 199° (SSW) 3,326 7.4 -14.4°
Reaches altitude 10° 17:20:43 10° 213° (SSW) 2,399 6.9 -15.0°
Maximum altitude 17:24:51 23° 265° (W) 1,676 6.7 -15.8°
Drops below altitude 10° 17:29:01 10° 316° (NW) 2,411 7.4 -16.6°
Sets 17:31:51 0° 331° (NNW) 3,346 7.9 -17.1°
